GW2646 Weather Reports


time (UTC)temp
C
wind
direction
speed
KPH
gust
KPH
rain 1hr
cm
rain 24hr
cm
rain mn
cm
humidity
%
barometer
mb
20260509154046 12 350 1.6 6.4 0.00 0.00 0.00 81 1021.6
20260509153548 12 0 0.0 4.8 0.00 0.00 0.00 81 1021.6
20260509153110 12 0 0.0 6.4 0.00 0.00 0.00 82 1021.7
20260509152547 12 142 1.6 6.4 0.00 0.00 0.00 82 1021.8
20260509152047 12 0 0.0 3.2 0.00 0.00 0.00 83 1021.8
20260509151553 12 0 0.0 3.2 0.00 0.00 0.00 85 1021.8
20260509151047 11 0 0.0 3.2 0.00 0.00 0.00 85 1021.9
20260509150550 11 0 0.0 3.2 0.00 0.00 0.00 86 1021.9
20260509150054 11 0 0.0 3.2 0.00 0.00 0.00 87 1022.0
20260509145548 11 137 0.0 3.2 0.00 0.00 0.00 88 1022.1
20260509145047 11 137 0.0 3.2 0.00 0.00 0.00 89 1022.0
20260509144552 11 0 0.0 1.6 0.00 0.00 0.00 90 1022.1
20260509144048 10 0 0.0 1.6 0.00 0.00 0.00 91 1022.1
20260509143546 10 0 0.0 0.0 0.00 0.00 0.00 91 1022.1
20260509143052 10 0 0.0 0.0 0.00 0.00 0.00 91 1022.1
20260509142546 10 0 0.0 0.0 0.00 0.00 0.00 91 1022.1
20260509142047 10 0 0.0 0.0 0.00 0.00 0.00 92 1022.2
20260509141554 10 0 0.0 0.0 0.00 0.00 0.00 92 1022.2
20260509141047 10 0 0.0 0.0 0.00 0.00 0.00 92 1022.2
20260509140546 10 0 0.0 0.0 0.00 0.00 0.00 92 1022.3
20260509140052 10 0 0.0 0.0 0.00 0.00 0.00 91 1022.3
20260509135548 10 0 0.0 0.0 0.00 0.00 0.00 91 1022.3
20260509135047 10 0 0.0 0.0 0.00 0.00 0.00 91 1022.4
20260509134551 10 0 0.0 0.0 0.00 0.00 0.00 91 1022.4
20260509134046 10 0 0.0 0.0 0.00 0.00 0.00 91 1022.4
20260509133549 10 0 0.0 0.0 0.00 0.00 0.00 91 1022.3
20260509133048 10 0 0.0 0.0 0.00 0.00 0.00 91 1022.3
20260509132546 10 0 0.0 0.0 0.00 0.00 0.00 91 1022.3
20260509132046 10 0 0.0 0.0 0.00 0.00 0.00 91 1022.4
20260509131551 10 0 0.0 0.0 0.00 0.00 0.00 91 1022.3
20260509131046 10 0 0.0 0.0 0.00 0.00 0.00 91 1022.3
20260509130548 10 0 0.0 0.0 0.00 0.00 0.00 90 1022.3
20260509130105 10 0 0.0 0.0 0.00 0.00 0.00 89 1022.2
20260509125547 10 0 0.0 0.0 0.00 0.00 0.00 89 1022.2
20260509125046 10 0 0.0 0.0 0.00 0.00 0.00 89 1022.3
20260509124556 10 0 0.0 0.0 0.00 0.00 0.00 89 1022.3
20260509124048 10 0 0.0 0.0 0.00 0.00 0.00 88 1022.4
20260509123546 10 0 0.0 0.0 0.00 0.00 0.00 88 1022.4
20260509123053 10 0 0.0 0.0 0.00 0.00 0.00 88 1022.4
20260509122546 10 0 0.0 0.0 0.00 0.00 0.00 88 1022.5
20260509122046 10 0 0.0 0.0 0.00 0.00 0.00 88 1022.4
20260509121611 10 0 0.0 0.0 0.00 0.00 0.00 88 1022.5
20260509121049 10 0 0.0 0.0 0.00 0.00 0.00 88 1022.4
20260509120551 10 0 0.0 0.0 0.00 0.00 0.00 88 1022.4
20260509120048 10 0 0.0 0.0 0.00 0.00 0.00 88 1022.5
20260509115545 10 0 0.0 0.0 0.00 0.00 0.00 87 1022.6
20260509115045 10 0 0.0 0.0 0.00 0.00 0.00 87 1022.5
20260509114558 10 0 0.0 0.0 0.00 0.00 0.00 87 1022.6
20260509114046 10 0 0.0 0.0 0.00 0.00 0.00 87 1022.5
20260509113546 10 0 0.0 0.0 0.00 0.00 0.00 87 1022.6
20260509113056 10 0 0.0 0.0 0.00 0.00 0.00 87 1022.6
20260509112545 11 0 0.0 0.0 0.00 0.00 0.00 87 1022.7
20260509112045 11 0 0.0 0.0 0.00 0.00 0.00 86 1022.7
20260509111549 11 0 0.0 0.0 0.00 0.00 0.00 86 1022.7
20260509111045 11 0 0.0 0.0 0.00 0.00 0.00 86 1022.8
20260509110545 11 0 0.0 0.0 0.00 0.00 0.00 86 1022.8
20260509110053 11 0 0.0 0.0 0.00 0.00 0.00 86 1022.8
20260509105549 11 0 0.0 3.2 0.00 0.00 0.00 86 1022.8
20260509105045 11 0 0.0 3.2 0.00 0.00 0.00 86 1022.8
20260509104551 11 0 0.0 3.2 0.00 0.00 0.00 86 1022.8
20260509104046 11 0 0.0 0.0 0.00 0.00 0.00 85 1022.8
20260509103546 11 0 0.0 0.0 0.00 0.00 0.00 85 1022.8
20260509103058 11 0 0.0 0.0 0.00 0.00 0.00 85 1022.7
20260509102545 11 0 0.0 12.9 0.00 0.00 0.00 85 1022.8
20260509102046 11 0 0.0 12.9 0.00 0.00 0.00 85 1022.8
20260509101600 11 137 1.6 12.9 0.00 0.00 0.00 84 1022.8
20260509101045 11 0 1.6 12.9 0.00 0.00 0.00 84 1022.7
20260509100545 11 161 6.4 12.9 0.00 0.00 0.00 84 1022.8
20260509100050 11 163 0.0 8.0 0.00 0.00 0.00 84 1022.7
20260509095545 11 0 0.0 4.8 0.00 0.00 0.00 84 1022.8
20260509095045 11 0 0.0 8.0 0.00 0.00 0.00 84 1022.7
20260509094606 11 0 0.0 8.0 0.00 0.00 0.00 84 1022.7
20260509094052 11 0 0.0 12.9 0.00 0.00 0.00 84 1022.7
20260509093547 11 181 0.0 12.9 0.00 0.00 0.00 84 1022.7
20260509093056 11 167 4.8 12.9 0.00 0.00 0.00 84 1022.6
20260509092546 11 0 4.8 11.3 0.00 0.00 0.00 84 1022.7
20260509092047 11 165 4.8 14.5 0.00 0.00 0.00 84 1022.6
20260509091558 11 161 4.8 14.5 0.00 0.00 0.00 85 1022.6
20260509091047 11 159 3.2 11.3 0.00 0.00 0.00 85 1022.7
20260509090545 11 161 1.6 11.3 0.00 0.00 0.00 85 1022.7
20260509085544 11 163 1.6 9.7 0.00 0.00 0.00 86 1022.6
20260509085046 11 155 1.6 9.7 0.00 0.00 0.00 86 1022.6
20260509084558 11 0 1.6 11.3 0.00 0.00 0.00 87 1022.7
20260509084046 11 0 0.0 11.3 0.00 0.00 0.00 87 1022.7
20260509083545 11 165 0.0 6.4 0.00 0.00 0.00 88 1022.7
20260509083059 11 0 0.0 1.6 0.00 0.00 0.00 88 1022.7
20260509082545 11 0 0.0 1.6 0.00 0.00 0.00 88 1022.7
20260509082045 11 0 0.0 0.0 0.00 0.00 0.00 88 1022.6
20260509081552 11 0 0.0 0.0 0.00 0.00 0.00 88 1022.7
20260509081047 11 0 0.0 0.0 0.00 0.00 0.00 88 1022.6
20260509080547 11 0 0.0 0.0 0.00 0.00 0.00 87 1022.6
20260509080054 11 0 0.0 0.0 0.00 0.00 0.00 87 1022.6
20260509075547 11 0 0.0 0.0 0.00 0.00 0.00 87 1022.6
20260509075047 11 0 0.0 0.0 0.00 0.00 0.00 87 1022.6
20260509074556 11 0 0.0 0.0 0.00 0.00 0.00 87 1022.6
20260509074046 11 0 0.0 0.0 0.00 0.00 0.00 86 1022.5
20260509073546 11 0 0.0 0.0 0.00 0.00 0.00 85 1022.5
20260509073055 11 0 0.0 0.0 0.00 0.00 0.00 85 1022.5
20260509072546 11 0 0.0 0.0 0.00 0.00 0.00 85 1022.4
20260509072045 11 0 0.0 0.0 0.00 0.00 0.00 85 1022.4
20260509071550 11 0 0.0 0.0 0.00 0.00 0.00 84 1022.3
20260509071045 11 0 0.0 0.0 0.00 0.00 0.00 84 1022.3
20260509070545 11 0 0.0 0.0 0.00 0.00 0.00 84 1022.3
20260509070053 11 0 0.0 0.0 0.00 0.00 0.00 84 1022.3
20260509065549 11 0 0.0 0.0 0.00 0.00 0.00 84 1022.4
20260509065047 11 0 0.0 1.6 0.00 0.00 0.00 84 1022.3
20260509064550 11 0 0.0 1.6 0.00 0.00 0.00 83 1022.3
20260509064047 11 0 0.0 1.6 0.00 0.00 0.00 83 1022.3
20260509063546 11 0 0.0 1.6 0.00 0.00 0.00 83 1022.3
20260509063054 12 0 0.0 1.6 0.00 0.00 0.00 83 1022.3
20260509062547 12 0 0.0 1.6 0.00 0.00 0.00 83 1022.3
20260509062047 12 0 0.0 3.2 0.00 0.00 0.00 83 1022.2
20260509061550 11 0 0.0 3.2 0.00 0.00 0.00 83 1022.3
20260509061046 11 0 0.0 0.0 0.00 0.00 0.00 84 1022.2
20260509060547 11 0 0.0 0.0 0.00 0.00 0.00 83 1022.2
20260509060107 11 0 0.0 0.0 0.00 0.00 0.00 83 1022.2
20260509055544 12 0 0.0 0.0 0.00 0.00 0.00 83 1022.2
20260509055045 12 0 0.0 0.0 0.00 0.00 0.00 83 1022.1
20260509054551 12 0 0.0 0.0 0.00 0.00 0.00 82 1022.1
20260509054046 12 0 0.0 0.0 0.00 0.00 0.00 82 1022.1
20260509053546 12 0 0.0 0.0 0.00 0.00 0.00 81 1022.1
20260509053111 12 0 0.0 1.6 0.00 0.00 0.00 81 1022.0
20260509052549 12 0 0.0 1.6 0.00 0.00 0.00 81 1022.1
20260509052046 12 0 0.0 1.6 0.00 0.00 0.00 80 1022.0
20260509051554 12 0 0.0 1.6 0.00 0.00 0.00 80 1022.1
20260509051050 12 0 0.0 1.6 0.00 0.00 0.00 80 1022.1
20260509050551 12 0 0.0 1.6 0.00 0.00 0.00 80 1022.1
20260509050052 12 0 0.0 0.0 0.00 0.00 0.00 81 1022.1
20260509045547 12 0 0.0 0.0 0.00 0.00 0.00 80 1022.1
20260509045046 12 0 0.0 0.0 0.00 0.00 0.00 80 1022.0
20260509044621 12 0 0.0 0.0 0.00 0.00 0.00 81 1022.0
20260509044047 12 0 0.0 0.0 0.00 0.00 0.00 81 1022.0
20260509043545 12 0 0.0 0.0 0.00 0.00 0.00 80 1021.9
20260509043125 12 0 0.0 0.0 0.00 0.00 0.00 80 1021.9
20260509042547 12 0 0.0 0.0 0.00 0.00 0.00 80 1021.8
20260509042048 12 0 0.0 3.2 0.00 0.00 0.00 80 1021.7
20260509041553 12 0 0.0 3.2 0.00 0.00 0.00 80 1021.6
20260509041046 12 0 0.0 3.2 0.00 0.00 0.00 81 1021.6
20260509040545 12 0 0.0 0.0 0.00 0.00 0.00 82 1021.6
20260509040057 12 0 0.0 0.0 0.00 0.00 0.00 80 1021.5
20260509035546 12 0 0.0 0.0 0.00 0.00 0.00 79 1021.6
20260509035047 12 0 0.0 0.0 0.00 0.00 0.00 79 1021.5
20260509034552 12 0 0.0 0.0 0.00 0.00 0.00 78 1021.5
20260509034047 13 0 0.0 0.0 0.00 0.00 0.00 77 1021.5
20260509033549 13 0 0.0 0.0 0.00 0.00 0.00 76 1021.5
20260509033051 13 0 0.0 0.0 0.00 0.00 0.00 75 1021.5
20260509032546 13 0 0.0 0.0 0.00 0.00 0.00 75 1021.5
20260509032046 13 0 0.0 0.0 0.00 0.00 0.00 75 1021.5
20260509031600 13 0 0.0 0.0 0.00 0.00 0.00 76 1021.5
20260509031047 13 0 0.0 0.0 0.00 0.00 0.00 74 1021.5
20260509030546 13 0 0.0 0.0 0.00 0.00 0.00 73 1021.5
20260509030110 13 0 0.0 0.0 0.00 0.00 0.00 72 1021.4
20260509025545 14 0 0.0 0.0 0.00 0.00 0.00 71 1021.4
20260509025049 14 0 0.0 0.0 0.00 0.00 0.00 70 1021.4
20260509024553 14 0 0.0 3.2 0.00 0.00 0.00 69 1021.3
20260509024046 14 0 0.0 3.2 0.00 0.00 0.00 70 1021.3
20260509023547 14 0 0.0 0.0 0.00 0.00 0.00 71 1021.3
20260509023055 14 0 0.0 0.0 0.00 0.00 0.00 69 1021.4
20260509022547 15 0 0.0 0.0 0.00 0.00 0.00 68 1021.3
20260509022049 15 0 0.0 0.0 0.00 0.00 0.00 65 1021.4
20260509021553 15 0 0.0 0.0 0.00 0.00 0.00 67 1021.4
20260509021049 15 0 0.0 0.0 0.00 0.00 0.00 67 1021.3
20260509020547 15 0 0.0 0.0 0.00 0.00 0.00 67 1021.2
20260509020104 15 0 0.0 1.6 0.00 0.00 0.00 64 1021.3
20260509015547 15 0 0.0 1.6 0.00 0.00 0.00 64 1021.3
20260509015046 15 0 0.0 1.6 0.00 0.00 0.00 64 1021.3
20260509014549 15 0 0.0 1.6 0.00 0.00 0.00 62 1021.2
20260509014048 15 0 0.0 4.8 0.00 0.00 0.00 64 1021.3
20260509013547 15 0 0.0 4.8 0.00 0.00 0.00 61 1021.3
20260509013057 15 0 0.0 4.8 0.00 0.00 0.00 62 1021.2
20260509012545 15 0 0.0 4.8 0.00 0.00 0.00 62 1021.4
20260509012046 15 189 0.0 4.8 0.00 0.00 0.00 61 1021.3
20260509011555 15 0 1.6 4.8 0.00 0.00 0.00 62 1021.3
20260509011045 15 0 0.0 4.8 0.00 0.00 0.00 62 1021.2
20260509010545 15 0 0.0 11.3 0.00 0.00 0.00 62 1021.2
20260509010053 15 198 3.2 11.3 0.00 0.00 0.00 62 1021.3
20260509005545 15 229 0.0 8.0 0.00 0.00 0.00 61 1021.3
20260509005047 15 0 0.0 11.3 0.00 0.00 0.00 61 1021.3
20260509004559 15 0 4.8 11.3 0.00 0.00 0.00 60 1021.3
20260509004045 15 0 0.0 6.4 0.00 0.00 0.00 61 1021.2
20260509003547 15 193 0.0 8.0 0.00 0.00 0.00 61 1021.2
20260509003055 15 211 3.2 9.7 0.00 0.00 0.00 61 1021.2
20260509002546 15 0 3.2 11.3 0.00 0.00 0.00 61 1021.2
20260509002046 15 219 4.8 14.5 0.00 0.00 0.00 62 1021.2
20260509001553 15 221 3.2 14.5 0.00 0.00 0.00 61 1021.2
20260509001045 15 209 1.6 12.9 0.00 0.00 0.00 62 1021.1
20260509000545 15 259 3.2 14.5 0.00 0.00 0.00 61 1021.2
20260509000055 15 213 6.4 16.1 0.00 0.00 0.00 62 1021.2
20260508235546 15 186 4.8 16.1 0.00 0.00 0.00 61 1021.1
20260508235046 15 261 6.4 16.1 0.00 0.00 0.00 61 1021.1
20260508234551 15 193 3.2 16.1 0.00 0.00 0.00 61 1021.0
20260508234047 15 184 1.6 16.1 0.00 0.00 0.00 61 1021.1
20260508233547 15 240 1.6 16.1 0.00 0.00 0.00 61 1021.0
20260508233053 15 229 3.2 17.7 0.00 0.00 0.00 60 1021.0
20260508232552 15 282 6.4 19.3 0.00 0.00 0.00 58 1021.0
20260508232046 15 200 6.4 19.3 0.00 0.00 0.00 60 1021.0
20260508231555 15 245 4.8 17.7 0.00 0.00 0.00 61 1021.0
20260508231046 15 198 3.2 17.7 0.00 0.00 0.00 61 1021.0
20260508230550 15 198 6.4 22.5 0.00 0.00 0.00 60 1021.0
20260508230055 15 206 8.0 22.5 0.00 0.00 0.00 60 1020.8
20260508225548 15 184 8.0 19.3 0.00 0.00 0.00 59 1020.9
20260508225051 15 232 3.2 25.7 0.00 0.00 0.00 60 1020.9
20260508224627 15 221 8.0 25.7 0.00 0.00 0.00 59 1020.9
20260508224047 15 146 6.4 17.7 0.00 0.00 0.00 59 1020.8
20260508223547 15 161 6.4 29.0 0.00 0.00 0.00 57 1020.9
20260508223055 15 139 8.0 29.0 0.00 0.00 0.00 58 1020.8
20260508222548 15 142 3.2 19.3 0.00 0.00 0.00 57 1020.9
20260508222047 15 175 8.0 19.3 0.00 0.00 0.00 58 1020.9
20260508221557 15 180 6.4 19.3 0.00 0.00 0.00 59 1020.9
20260508221047 15 111 3.2 17.7 0.00 0.00 0.00 58 1020.9
20260508220547 15 142 4.8 19.3 0.00 0.00 0.00 58 1021.1
20260508220057 15 150 8.0 19.3 0.00 0.00 0.00 58 1021.0
20260508215545 15 169 6.4 19.3 0.00 0.00 0.00 59 1021.0
20260508215044 15 199 8.0 20.9 0.00 0.00 0.00 59 1020.9
20260508214556 14 0 8.0 20.9 0.00 0.00 0.00 58 1020.8
20260508214046 14 155 8.0 19.3 0.00 0.00 0.00 62 1020.8
20260508213544 14 198 9.7 19.3 0.00 0.00 0.00 61 1020.9
20260508213053 14 167 6.4 17.7 0.00 0.00 0.00 63 1020.9
20260508212547 14 195 8.0 17.7 0.00 0.00 0.00 61 1020.9
20260508212047 14 142 8.0 27.4 0.00 0.00 0.00 64 1021.0
20260508211555 13 214 8.0 27.4 0.00 0.00 0.00 64 1020.9
20260508211046 14 126 8.0 22.5 0.00 0.00 0.00 64 1020.9
20260508210547 14 180 9.7 22.5 0.00 0.00 0.00 63 1020.8
20260508210059 14 157 8.0 24.1 0.00 0.00 0.00 63 1020.7
20260508205548 13 162 11.3 24.1 0.00 0.00 0.00 64 1020.7
20260508205045 14 193 8.0 24.1 0.00 0.00 0.00 62 1020.6
20260508204556 14 157 8.0 17.7 0.00 0.00 0.00 63 1020.7
20260508204046 14 78 9.7 22.5 0.00 0.00 0.00 62 1020.6
20260508203545 14 163 9.7 22.5 0.00 0.00 0.00 63 1020.7
20260508203106 14 65 4.8 22.5 0.00 0.00 0.00 62 1020.6
20260508202546 14 153 8.0 22.5 0.00 0.00 0.00 63 1020.7
20260508202047 14 178 6.4 22.5 0.00 0.00 0.00 62 1020.7
20260508201557 14 121 9.7 22.5 0.00 0.00 0.00 60 1020.7
20260508201046 14 184 8.0 25.7 0.00 0.00 0.00 62 1020.6
20260508200546 14 248 8.0 25.7 0.00 0.00 0.00 60 1020.6
20260508200052 14 208 3.2 22.5 0.00 0.00 0.00 59 1020.5
20260508195549 13 195 9.7 22.5 0.00 0.00 0.00 61 1020.5
20260508195045 13 161 6.4 25.7 0.00 0.00 0.00 64 1020.4
20260508194551 13 248 4.8 25.7 0.00 0.00 0.00 65 1020.4
20260508194048 13 159 11.3 22.5 0.00 0.00 0.00 66 1020.4
20260508193547 13 230 8.0 20.9 0.00 0.00 0.00 66 1020.3
20260508193054 13 217 9.7 25.7 0.00 0.00 0.00 66 1020.3
20260508192549 13 173 12.9 25.7 0.00 0.00 0.00 64 1020.3
20260508192047 13 175 11.3 24.1 0.00 0.00 0.00 63 1020.3
20260508191551 14 175 6.4 22.5 0.00 0.00 0.00 63 1020.2
20260508191051 13 206 8.0 22.5 0.00 0.00 0.00 65 1020.2
20260508190547 13 227 9.7 19.3 0.00 0.00 0.00 67 1020.4
20260508190054 13 202 9.7 17.7 0.00 0.00 0.00 67 1020.3
20260508185549 13 140 8.0 16.1 0.00 0.00 0.00 68 1020.3
20260508185046 13 248 6.4 17.7 0.00 0.00 0.00 69 1020.2
20260508184554 12 227 8.0 22.5 0.00 0.00 0.00 68 1020.2
20260508184045 12 183 6.4 22.5 0.00 0.00 0.00 70 1020.2
20260508183548 12 194 8.0 22.5 0.00 0.00 0.00 69 1020.3
20260508183052 12 161 9.7 22.5 0.00 0.00 0.00 69 1020.2
20260508182548 13 216 9.7 20.9 0.00 0.00 0.00 69 1020.2
20260508182047 13 142 8.0 20.9 0.00 0.00 0.00 68 1020.2
20260508181557 12 205 6.4 19.3 0.00 0.00 0.00 71 1020.0
20260508181047 12 177 6.4 16.1 0.00 0.00 0.00 72 1020.0
20260508180547 12 194 4.8 17.7 0.00 0.00 0.00 76 1020.0
20260508180052 12 180 4.8 24.1 0.00 0.00 0.00 77 1020.0
20260508175547 12 214 8.0 25.7 0.00 0.00 0.00 76 1019.9
20260508175047 12 192 11.3 25.7 0.00 0.00 0.00 75 1019.9
20260508174600 12 0 4.8 17.7 0.00 0.00 0.00 77 1019.8
20260508174046 12 155 4.8 17.7 0.00 0.00 0.00 79 1019.7
20260508173549 12 187 3.2 27.4 0.00 0.00 0.00 80 1019.6
20260508173056 11 120 8.0 27.4 0.00 0.00 0.00 80 1019.4
20260508172546 11 173 6.4 25.7 0.00 0.00 0.00 81 1019.4
20260508172046 11 157 8.0 19.3 0.00 0.00 0.00 81 1019.4
20260508171552 11 192 9.7 17.7 0.00 0.00 0.00 81 1019.3
20260508171046 11 171 8.0 16.1 0.00 0.00 0.00 81 1019.1
20260508170545 11 171 4.8 12.9 0.00 0.00 0.00 83 1019.1
20260508170052 11 184 1.6 12.9 0.00 0.00 0.00 85 1018.9
20260508165545 11 0 3.2 16.1 0.00 0.00 0.00 84 1018.9
20260508165045 11 167 6.4 20.9 0.00 0.00 0.00 84 1019.0
20260508164556 11 167 6.4 20.9 0.00 0.00 0.00 84 1019.0
20260508164047 10 159 6.4 12.9 0.00 0.00 0.00 85 1018.9
20260508163548 10 169 4.8 17.7 0.00 0.00 0.00 86 1018.8
20260508163050 10 142 6.4 19.3 0.00 0.00 0.00 87 1018.8
20260508162545 10 219 6.4 19.3 0.00 0.00 0.00 88 1018.9
20260508162047 10 183 4.8 19.3 0.00 0.00 0.00 89 1018.9
20260508161555 10 137 3.2 12.9 0.00 0.00 0.00 89 1018.9
20260508161050 10 165 3.2 12.9 0.00 0.00 0.00 90 1018.9
20260508160544 10 173 6.4 12.9 0.00 0.00 0.00 90 1019.0
20260508160048 10 163 4.8 12.9 0.00 0.00 0.00 90 1019.0
20260508155546 10 114 1.6 14.5 0.00 0.00 0.00 90 1019.1
20260508155046 10 157 3.2 14.5 0.00 0.00 0.00 91 1018.9
20260508154607 10 156 6.4 14.5 0.00 0.00 0.00 91 1018.9